EW1577 Weather Reports


time (UTC)temp
C
wind
direction
speed
KPH
gust
KPH
rain 1hr
cm
rain 24hr
cm
rain mn
cm
humidity
%
barometer
mb
20260510192603 20 15 1.6 6.4 0.00 0.00 0.00 38 1016.4
20260510191601 20 244 3.2 6.4 0.00 0.00 0.00 38 1016.6
20260510190602 20 341 1.6 9.7 0.00 0.00 0.00 41 1016.4
20260510184601 20 36 1.6 6.4 0.00 0.00 0.00 42 1016.4
20260510183601 19 49 0.0 9.7 0.00 0.00 0.00 39 1016.2
20260510182600 20 150 1.6 16.1 0.00 0.00 0.00 45 1016.1
20260510180600 20 328 1.6 9.7 0.00 0.00 0.00 39 1016.3
20260510175601 19 321 0.0 12.9 0.00 0.00 0.00 47 1016.1
20260510174600 19 32 4.8 6.4 0.00 0.00 0.00 40 1015.8
20260510173602 20 285 0.0 9.7 0.00 0.00 0.00 37 1015.8
20260510172601 19 342 0.0 9.7 0.00 0.00 0.00 40 1015.9
20260510170601 19 345 6.4 12.9 0.00 0.00 0.00 38 1016.1
20260510165601 18 2 0.0 9.7 0.00 0.00 0.00 42 1016.0
20260510164601 20 18 1.6 4.8 0.00 0.00 0.00 40 1016.0
20260510162558 18 62 1.6 9.7 0.00 0.00 0.00 43 1016.2
20260510160550 18 246 3.2 4.8 0.00 0.00 0.00 41 1016.2
20260510155543 17 75 3.2 9.7 0.00 0.00 0.00 42 1015.9
20260510154536 18 281 1.6 6.4 0.00 0.00 0.00 40 1015.8
20260510153533 17 8 1.6 9.7 0.00 0.00 0.00 46 1015.9
20260510151529 16 4 1.6 3.2 0.00 0.00 0.00 51 1015.3
20260510150526 16 20 1.6 9.7 0.00 0.00 0.00 50 1015.4
20260510145519 16 343 0.0 4.8 0.00 0.00 0.00 49 1015.5
20260510144516 16 333 1.6 3.2 0.00 0.00 0.00 49 1015.3
20260510143506 15 2 1.6 4.8 0.00 0.00 0.00 51 1015.0
20260510142506 15 18 1.6 4.8 0.00 0.00 0.00 50 1014.6
20260510141504 15 348 1.6 3.2 0.00 0.00 0.00 55 1014.6
20260510140501 14 359 0.0 3.2 0.00 0.00 0.00 55 1014.5
20260510135501 14 33 1.6 6.4 0.00 0.00 0.00 54 1014.5
20260510134501 14 348 0.0 3.2 0.00 0.00 0.00 55 1014.6
20260510133502 13 13 0.0 6.4 0.00 0.00 0.00 58 1014.2
20260510132502 13 13 0.0 3.2 0.00 0.00 0.00 59 1014.3
20260510131501 13 9 3.2 4.8 0.00 0.00 0.00 58 1014.2
20260510130502 13 344 0.0 3.2 0.00 0.00 0.00 66 1014.2
20260510124504 12 351 0.0 3.2 0.00 0.00 0.00 66 1013.9
20260510123448 12 345 0.0 1.6 0.00 0.03 0.00 67 1013.6
20260510122447 12 3 0.0 1.6 0.00 0.03 0.00 69 1013.6
20260510120430 12 357 0.0 3.2 0.00 0.05 0.00 70 1013.5
20260510115429 12 344 0.0 1.6 0.00 0.05 0.00 76 1013.3
20260510114430 12 351 0.0 0.0 0.00 0.05 0.00 76 1013.1
20260510113430 12 350 0.0 0.0 0.00 0.05 0.00 77 1013.1
20260510112429 12 350 0.0 3.2 0.00 0.05 0.00 75 1013.0
20260510111429 12 348 0.0 3.2 0.00 0.05 0.00 74 1012.6
20260510110410 12 335 0.0 6.4 0.00 0.05 0.00 73 1012.3
20260510105401 12 347 0.0 3.2 0.00 0.05 0.00 74 1012.5
20260510104401 12 31 4.8 9.7 0.00 0.08 0.00 73 1012.3
20260510103401 12 354 0.0 3.2 0.00 0.08 0.00 75 1011.8
20260510102400 12 336 0.0 3.2 0.00 0.10 0.00 74 1011.8
20260510101356 13 347 0.0 1.6 0.00 0.13 0.00 75 1011.4
20260510095341 13 18 0.0 3.2 0.00 0.18 0.00 75 1011.1
20260510094330 13 310 3.2 4.8 0.00 0.20 0.00 76 1011.2
20260510093331 13 10 1.6 3.2 0.00 0.20 0.00 75 1010.7
20260510092329 13 346 0.0 6.4 0.00 0.23 0.00 77 1010.7
20260510091329 13 0 1.6 3.2 0.00 0.23 0.00 75 1010.5
20260510090330 13 352 0.0 9.7 0.00 0.23 0.00 75 1010.2
20260510085329 13 355 1.6 1.6 0.00 0.25 0.00 79 1009.9
20260510084328 13 324 0.0 3.2 0.00 0.28 0.00 80 1009.8
20260510083328 13 346 0.0 3.2 0.00 0.30 0.00 82 1009.4
20260510082329 13 334 1.6 4.8 0.00 0.30 0.00 82 1009.3
20260510081329 13 334 0.0 3.2 0.00 0.33 0.00 82 1009.3
20260510080328 13 345 0.0 1.6 0.00 0.33 0.00 83 1009.1
20260510075329 12 346 0.0 1.6 0.00 0.38 0.00 84 1009.0
20260510074329 12 344 0.0 0.0 0.00 0.41 0.00 85 1009.1
20260510073328 13 346 0.0 1.6 0.00 0.46 0.00 83 1009.4
20260510072328 14 355 0.0 1.6 0.00 0.48 0.00 77 1009.3
20260510071327 13 344 0.0 3.2 0.00 0.53 0.00 80 1009.3
20260510070323 13 342 0.0 0.0 0.00 0.56 0.00 82 1009.3
20260510064314 15 344 0.0 1.6 0.00 0.61 0.00 76 1009.3
20260510063306 16 347 0.0 3.2 0.00 0.61 0.00 74 1009.1
20260510062307 16 358 1.6 4.8 0.00 0.64 0.00 71 1009.2
20260510061303 16 348 0.0 3.2 0.00 0.66 0.00 71 1009.3
20260510060301 16 9 0.0 9.7 0.00 0.66 0.00 72 1009.5
20260510055301 15 331 3.2 6.4 0.00 0.66 0.00 77 1009.5
20260510054300 14 324 0.0 1.6 0.00 0.66 0.00 85 1009.5
20260510051300 14 347 0.0 0.0 0.00 0.69 0.00 84 1009.1
20260510050301 14 353 0.0 0.0 0.00 0.69 0.00 84 1009.0
20260510045305 13 355 0.0 0.0 0.00 0.69 0.00 84 1008.8
20260510044301 13 348 0.0 0.0 0.00 0.69 0.00 84 1008.8
20260510043300 13 349 0.0 1.6 0.00 0.69 0.00 84 1008.8
20260510042305 13 349 0.0 0.0 0.00 0.69 0.00 83 1008.7
20260510041303 13 350 0.0 0.0 0.00 0.69 0.00 82 1008.7
20260510040301 14 345 0.0 0.0 0.00 0.69 0.00 81 1008.7
20260510035301 15 354 0.0 3.2 0.00 0.71 0.71 79 1008.5
20260510034301 14 338 0.0 1.6 0.00 0.71 0.71 82 1008.5
20260510032300 14 348 0.0 0.0 0.00 0.71 0.71 80 1008.4
20260510031301 15 348 0.0 0.0 0.00 0.71 0.71 78 1008.2
20260510024300 16 347 0.0 0.0 0.00 0.71 0.71 73 1008.0
20260510023239 16 347 0.0 3.2 0.00 0.71 0.71 70 1008.1
20260510021229 17 348 0.0 3.2 0.00 0.71 0.71 66 1007.9
20260510020229 17 351 0.0 6.4 0.00 0.71 0.71 64 1007.7
20260510014229 18 271 1.6 4.8 0.00 0.71 0.71 61 1007.4
20260510013230 18 349 1.6 3.2 0.00 0.71 0.71 61 1007.3
20260510012211 19 321 1.6 4.8 0.00 0.71 0.71 60 1007.3
20260510011208 19 241 3.2 9.7 0.00 0.71 0.71 59 1006.7
20260510010206 19 238 1.6 4.8 0.00 0.74 0.71 59 1007.0
20260510005203 20 140 3.2 4.8 0.00 0.74 0.71 57 1006.8
20260510004202 20 186 1.6 4.8 0.00 0.74 0.71 56 1006.6
20260510003201 20 341 3.2 9.7 0.00 0.74 0.71 55 1006.5
20260510002201 20 298 3.2 9.7 0.00 0.74 0.71 54 1006.5
20260510001201 20 214 6.4 9.7 0.00 0.74 0.71 53 1006.3
20260510000158 21 2 3.2 14.5 0.00 0.74 0.71 52 1006.2
20260509235155 21 345 6.4 14.5 0.00 0.74 0.71 51 1006.1
20260509233148 21 237 4.8 14.5 0.00 0.74 0.71 50 1006.1
20260509232143 21 241 4.8 17.7 0.00 0.74 0.71 50 1006.1
20260509231142 21 255 9.7 16.1 0.00 0.74 0.71 49 1006.0
20260509230140 21 189 6.4 14.5 0.00 0.74 0.71 47 1006.0
20260509225131 22 274 3.2 14.5 0.00 0.74 0.71 48 1005.9
20260509224130 21 251 3.2 17.7 0.00 0.74 0.71 50 1005.8
20260509223129 22 280 3.2 12.9 0.00 0.74 0.71 49 1005.7
20260509222128 22 319 6.4 14.5 0.00 0.74 0.71 51 1005.6
20260509221129 22 217 6.4 17.7 0.00 0.74 0.71 52 1005.6
20260509215129 22 348 3.2 16.1 0.00 0.74 0.71 52 1006.0
20260509214122 22 109 1.6 17.7 0.00 0.74 0.71 52 1005.9
20260509213116 22 231 6.4 16.1 0.00 0.74 0.71 50 1006.3
20260509212110 22 111 4.8 12.9 0.00 0.74 0.71 50 1006.0
20260509211104 22 181 4.8 17.7 0.00 0.74 0.71 50 1006.2
20260509205103 22 327 3.2 16.1 0.00 0.74 0.71 52 1006.1
20260509204102 22 212 3.2 16.1 0.00 0.74 0.71 50 1006.2
20260509203101 22 319 6.4 11.3 0.00 0.74 0.71 52 1006.4
20260509202101 21 238 3.2 20.9 0.00 0.74 0.71 54 1006.4
20260509200051 21 148 3.2 14.5 0.00 0.74 0.71 55 1006.5
20260509195048 21 213 6.4 17.7 0.00 0.74 0.71 53 1007.0
20260509194046 21 354 6.4 14.5 0.00 0.74 0.71 52 1006.8
20260509193047 21 197 3.2 12.9 0.00 0.74 0.71 56 1006.8